Location: Central Falls
(41.8900°N, 71.3929°W)
Time: 04:16:34
(UTC+00:00)

Altair - Pass Details

Date: 07 December 2023
Orbit: 1501 x 1682 km, 47.2° (Epoch: 01 March)

Event Time Altitude Azimuth Distance (km) Brightness Sun altitude
Rises 16:19:09 0° 287° (WNW) 4,764 9.9 25.3°
Reaches altitude 10° 16:22:18 10° 290° (WNW) 3,755 9.4 25.4°
Maximum altitude 16:31:45 70° 14° (NNE) 1,607 7.8 25.5°
Drops below altitude 10° 16:40:56 10° 97° (E) 3,654 9.6 25.5°
Sets 16:43:57 0° 100° (E) 4,630 10.1 25.5°
